Weather Roundup
Issued by NWS Chicago, IL

Home | Current Version | Previous Version | Graphics & Text | Print | Product List | Glossary On
Versions: 1 2 3 4 5 6 7 8 9 10 11 12 13 14 15 16 17 18 19 20 21 22 23 24 25 26 27 28 29 30 31 32 33 34 35 36 37 38 39 40 41 42 43 44 45 46 47 48 49 50
000
NZUS59 KLOT 231709
HRRLOT

CHICAGO AREA WEATHER ROUNDUP
NATIONAL WEATHER SERVICE CHICAGO/ROMEOVILLE IL
1200 PM CDT FRI JUN 23 2017

NOTE: "FAIR" INDICATES FEW OR NO CLOUDS BELOW 12,000 FEET WITH NO
SIGNIFICANT WEATHER AND/OR OBSTRUCTIONS TO VISIBILITY.

* THESE STATIONS ARE NOT UNDER NWS QUALITY CONTROL. THEY ALSO MAY NOT
  REPORT WEATHER SUCH AS PRECIPITATION OR FOG.

ILZ005-006-012>014-019>023-231800-
NORTHEAST ILLINOIS

CITY           SKY/WX    TMP DP  RH WIND       PRES   REMARKS
OHARE          CLOUDY    77  59  53 NW13G20   29.70R
MIDWAY         PTSUNNY   77  57  50 N14       29.70R
AURORA         PTSUNNY   75  63  66 NW14      29.73R
LANSING*       PTSUNNY   73  58  60 N6        29.71R
JOLIET*        CLOUDY    76  61  59 NW8       29.72R
WAUKEGAN       CLOUDY    75  62  64 VRB6      29.69F
DUPAGE AIRPORT CLOUDY    74  61  63 N12       29.71S
WHEELING       CLOUDY    75  61  61 NW12      29.71S
MORRIS*        CLOUDY    74  60  62 NW6       29.72R
LEWIS AIRPORT* CLOUDY    74  58  57 N12       29.72R
NORTHERLY ISL    N/A     70  62  76 CALM        N/A
$$

WIZ051-052-058>065-066-070>072-231800-
SOUTHEAST WISCONSIN

CITY           SKY/WX    TMP DP  RH WIND       PRES   REMARKS
MILWAUKEE      PTSUNNY   80  45  28 NW17G24   29.68F
KENOSHA*       CLOUDY    76  55  48 N13       29.70S
RACINE*        CLOUDY    77  53  43 NW10G20   29.70F
WAUKESHA       SUNNY     73  52  46 W10       29.71F
WEST BEND      PTSUNNY   73  45  35 NW9G16    29.69S
$$

INZ001>003-010>013-019-020-231800-
NORTHWEST INDIANA

CITY           SKY/WX    TMP DP  RH WIND       PRES   REMARKS
GARY*          PTSUNNY   72  61  68 N9        29.72R
MICHIGAN CITY* NOT AVBL
RENSSELAER*    NOT AVBL
VALPARAISO     CLOUDY    70  62  76 NW8       29.71R
$$

LMZ740>746-231800-
SOUTHERN LAKE MICHIGAN

STATION/POSITION TIME  SKY/WX   TEMP WIND        PRES    VSBY
                                AIR  DIR/SP/G
                 (UTC)          (F)  (DEG/KT/KT) (MB)    (MI)
HARRISON CRIB    1640            68  360/  8/  8   N/A
BURNHAM HARBOR   1700            70                N/A
CALUMET HARBOR   1642            70  350/  7/  8 1005.5R
BURNS HARBOR     1640            66  330/ 12/ 14 1006.4R
MICHIGAN CITY    1640            66  320/ 15/ 17   N/A
$$

ABBREVIATIONS USED IN REMARKS
   TC - TEMPERATURE IN CELSIUS
  WCI - WIND CHILL INDEX
   HX - HEAT INDEX
  VSB - VISIBILITY
$$




USA.gov is the U.S. government's official web portal to all federal, state and local government web resources and services.